星链-31269 (STARLINK-31269 )

导读

STARLINK-31269是美国于2024年1月24日发射的星链卫星,隶属于SpaceX的星链互联网星座项目。星链计划旨在构建全球卫星互联网覆盖网络,为全球偏远地区提供高速互联网接入服务。STARLINK-31269的入轨进一步壮大了星链星座规模,推动全球卫星通信网络的完善与部署,提升星座覆盖能力和服务性能。

基本信息
目录编号:
58844
目录名称:
STARLINK-31269
国际标识:
2024-017U
轨道中心:
EARTH
卫星名称:
星链-31269
卫星全名:
星链-31269 (STARLINK-31269 )
卫星状态:
在轨 (已飞行876 天)
发射日期:
2024-01-24 UTC
国别 :
美国 (US)
星等 :
--
轨道信息
数据来源 国际轨道数据 AOE轨道数据
星历时间 2026-06-17T17:21:06+0800
21小时前
查看轨道信息
2026-06-18T02:00:00+0800
12小时前
查看轨道信息
半长轴 6853.375km 6853.366km
偏心率 0.000122 0.0001815
轨道倾角 53.160° 53.153°
近地点辐角 85.099° 88.941°
升交点赤经 191.349° 189.675°
平近点角 275.015° 97.295°
近地点 474.401km 473.985km
远地点 476.075km 476.473km
周期 94.106分钟 94.106分钟
每日圈数 15.301926 15.301956
详细信息
固有亮度:
5
最大亮度:
0.3
卫星平台:
Starlink v2.0 mini
覆盖范围:
全球
运营商:
太空探索技术公司
运营商所在国:
美国
制造商(研发单位):
太空探索技术公司
制造商所在国:
美国
使用方式:
暂无
卫星简介
星链(Starlink)计划是由太空探索技术公司(SpaceX)提出的一个巨型低轨卫星互联网星座项目,计划在2019年至2024年间在太空搭建由约1.2万颗卫星组成的“星链”网络,其中1584颗将部署在地球上空550千米处的近地轨道,并从2020年开始工作。该卫星仍在工作。
2D轨道图
3D轨道图
轨道高度分析图
轨道倾角分析图
轨道综合分析图
查看轨道综合分析图